SL-16 R/B (22285 NORAD) Tracking and Keplerian Element Data

This shows tracking and keplerian element data for the satellite.

Feedback or suggestion? Click here.




ElementValue
Catalog22285
NameSL-16 R/B
Epoch Orbit65669
Epoch Day34.65385468
Epoch Year2025
RAAN121.8979
Inclination71.0218
Eccentricity0.0005465
Argument of Perigee220.6335
Mean Anonmoly139.4381
Mean Motion14.15358976
Decay Rate-7.2E-07
L11 22285U 92093B 25034.65385468 -.00000072 00000+0 -12732-4 0 9990
L22 22285 71.0218 121.8979 0005465 220.6335 139.4381 14.15358976656698



Live tracking and technical data element details for SL-16 R/B (NORAD 22285). SL-16 R/B can be tracked NOW for your location showing map with azimuth and elevation plus other details from your city location.







IsCatalogInMostPopularTable: catalog: 22285, numindb: 348
Update: records affected: 1



GetName: 22285 SL-16 R/B

Hit Count: updated at: Fri, 16 May 2025 11:29:21 GMT